Weather in Chulanovo

Russia / Belgorod Oblast     50°40′47″N   36°00′40″E
temp.,
°C
wind,
m/s
gust,
m/s
humid.,
%
clouds,
%
prec.,
mm/h
press.,
hPa
HPBL,
m
23 september, thu
thu2300:00+6sw2393100 0.0 1013272
03:00+7sw2394100 0.2 1013270
06:00+7sw2395100 0.5 1013226
09:00+7sw2294100 1.5 1013222
12:00+7wsw2288100 0.5 1013309
15:00+9wnw2277100 0.8 1013571
18:00+8w228199 0.4 1013174
21:00+7wsw359096 0.7 1013301
24 september, fri
fri2400:00+5wsw249563 0.1 101392
03:00+6ssw3689100 0.1 1011464
06:00+5ssw4989100 0.0 1010549
09:00+6s61188100 0.0 1008643
12:00+7s81583100 0.7 1006980
15:00+7ssw91592100 3.6 10041221
18:00+8ssw71394100 1.8 1003779
21:00+9sw6119699 1.9 1003507
25 september, sat
sat2500:00+7sw41096100 0.1 1003335
03:00+8sw499695 2.3 1003435
06:00+8sw4996100 1.3 1003535
09:00+8wnw598853 2.3 1004562
12:00+9nw688387 0.2 1006773
15:00+11nw687092 0.4 10081113
18:00+10wnw697889 0.1 1010468
21:00+9w498824 0.1 1012364
26 september, sun
sun2600:00+7wsw3794100 0.0 1013175
03:00+8sw3795100 0.4 1012331
06:00+9wsw4898100 0.4 1011366
09:00+11w51195100 0.8 1011545
12:00+13wnw8118175 0.4 1011970
15:00+14nw9126632 1.0 10121444
18:00+11nnw6117515 0.2 1015745
21:00+8nnw39896 0.3 1016310
27 september, mon
mon2700:00+7nw499516 0.0 1017234
03:00+7nw4891100 0.0 1018276
06:00+7nnw4892100 0.0 1019309
09:00+9n4684100 0.0 1019447
12:00+11n456991 0.0 1020925
15:00+11nne5670100 0.1 1020869
18:00+10n378165 0.1 1021241
21:00+8nne39908 0.1 1022228